Regional Weather Roundup
Issued by NWS

Home | Current Version | Previous Version | Text Only | Print | Product List | Glossary Off
Versions: 1 2 3 4 5 6 7 8 9 10 11 12 13 14 15 16 17 18 19 20 21 22 23 24 25 26 27 28 29 30 31 32 33 34 35 36 37 38 39 40 41 42 43 44 45 46 47 48 49 50

323
ASUS45 KABQ 280201
RWRNM
NEW MEXICO REGIONAL WEATHER ROUNDUP
NATIONAL WEATHER SERVICE ALBUQUERQUE NM
800 PM MDT SAT MAY 27 2017

NOTE: "FAIR" MEANS FEW OR NO CLOUDS BELOW 12,000 FEET AGL WITH NO
       SIGNIFICANT WEATHER OR OBSTRUCTIONS TO VISION.

      THIS PRODUCT IS RELEASED AS TWO VERSIONS.  ONE VERSION NEAR
      THE TOP OF THE HOUR CONTAINING PRELIMINARY DATA FROM ALBUQUERQUE
      AND OTHER STATIONS.  A FINAL VERSION WITH ADDITIONAL DATA IS
      ISSUED ABOUT 10 MINUTES AFTER THE HOUR.

NMZ501-503-504-510>518-280300-
NORTHWEST PLATEAU/NORTHCENTRAL MOUNTAINS

CITY           SKY/WX    TMP DP  RH WIND       PRES   REMARKS
FARMINGTON     FAIR      71  12  10 W21G28    30.08R
LOS ALAMOS     FAIR      66  17  14 W5        30.18R
SANTA FE       FAIR      71  18  13 NW12      30.09R
TAOS           FAIR      64  12  13 W17G23    30.18R
ANGEL FIRE     FAIR      57  16  19 W14G21    30.24R

$$
NMZ402-403-502-505>509-280300-
WESTCENTRAL MOUNTAINS/SOUTHWEST MOUNTAINS

CITY           SKY/WX    TMP DP  RH WIND       PRES   REMARKS
GALLUP         FAIR      70  16  12 W14       30.15R
GRANTS         FAIR      70  15  12 W12       30.16R
SILVER CITY    FAIR      76   9   7 NW12      30.08S

$$
NMZ407-409-411-412-280300-
SOUTHERN DESERTS

CITY           SKY/WX    TMP DP  RH WIND       PRES   REMARKS
DEMING         FAIR      83   9   6 NW8       29.99R
LAS CRUCES     FAIR      84  14   7 W13       30.01R
ALAMOGORDO     FAIR      84   5   5 W10G17    29.99R
T OR C         LGT RAIN  83  -1   4 SW16G23   29.99R

$$
NMZ519>523-280300-
CENTRAL VALLEYS/CENTRAL HIGHLANDS

CITY           SKY/WX    TMP DP  RH WIND       PRES   REMARKS
ALBUQUERQUE    FAIR      79  14   8 NW9       30.04R
DOUBLE EAGLE   PTCLDY    73  19  13 W13       30.08R
MORIARTY ARPT  FAIR      71  18  13 NW9       30.10R
CLINES CORNERS FAIR      66  16  14 NW10      30.14R
BELEN          FAIR      78  11   7 NW14      30.02S
SOCORRO        FAIR      81  13   8 NW10G17   29.98R

$$
NMZ524>526-539-540-280300-
SOUTHCENTRAL MOUNTAINS

CITY           SKY/WX    TMP DP  RH WIND       PRES   REMARKS
RUIDOSO        NOT AVBL

$$
NMZ527>531-280300-
NORTHEAST HIGHLANDS/NORTHEAST PLAINS

CITY           SKY/WX    TMP DP  RH WIND       PRES   REMARKS
LAS VEGAS      FAIR      64  14  14 W10       30.12R
RATON          FAIR      50  42  74 NE31G40   30.16R
CLAYTON        MOCLDY    51  45  79 N25G39    30.12R

$$
NMZ532>537-280300-
EASTCENTRAL PLAINS

CITY           SKY/WX    TMP DP  RH WIND       PRES   REMARKS
SANTA ROSA     FAIR      79  16   9 W12G17    29.96R
TUCUMCARI      FAIR      79  19  10 W10       29.88R
CANNON AFB     FAIR      81  14   8 NW9       29.94R
CLOVIS AIRPORT FAIR      81  21  11 NW9       29.93R

$$
NMZ028-029-538-280300-
SOUTHEAST PLAINS

CITY           SKY/WX    TMP DP  RH WIND       PRES   REMARKS
ROSWELL        FAIR      86  10   6 W12       29.89R
ARTESIA        FAIR      88  10   5 W16       29.90R
CARLSBAD       FAIR      88  11   5 W13       29.88R
HOBBS          FAIR      84   7   5 SW12      29.91R


$$




USA.gov is the U.S. government's official web portal to all federal, state and local government web resources and services.